Vertical_Velocity
0 0 0 0 -0 -0 0 0 1 1 1 1 0 -0 -1 -1 -0 -0 -0 -1 -1 -1 -0 1 1 0 -0 -1 -1 -1 -2 -2 -1 0 1 1 0 -1 -1 -1 -2 -2 -1 -1 -1 -1 -1 -0 -0 -0 -0 -0 0 0 0 -0 -1 -0 0 0 0 0 0 1 1 0 -0 -0 1
0 0 1 1 0 0 0 0 1 1 1 1 0 -0 -0 -0 -1 -1 -1 -1 -0 -0 0 0 0 -0 -1 -1 -1 -1 -2 -2 -1 0 1 1 -0 -1 -1 -2 -1 -1 -1 -1 -1 -2 -2 -1 -2 -2 -2 -1 -1 -1 -1 -1 -1 -0 -0 -0 -0 0 1 1 1 0 -0 -1 -0
0 0 0 1 0 0 -0 -0 0 1 1 0 0 0 -0 -0 -0 -0 -0 -0 0 0 -0 -1 -1 -1 -1 -1 -1 -1 -1 -1 -1 0 0 -0 -1 -1 -2 -1 -1 -0 -0 -1 -1 -1 -1 -1 -1 -1 -1 -1 -1 -1 -1 -1 0 0 -0 -1 -1 -0 0 1 1 1 0 -1 -1
0 0 0 0 -0 -0 -1 -0 0 0 0 0 0 0 0 0 0 0 0 0 -0 -1 -1 -1 -1 -1 -1 -1 -1 -1 -1 -0 0 0 -0 -1 -1 -1 -1 -0 -1 -1 -1 -1 -1 -1 -0 -0 -0 -0 -0 -0 -1 -1 -1 0 1 1 1 0 -0 -0 0 2 1 1 1 0 -0
0 0 0 0 0 -0 -0 0 0 0 0 0 -0 -0 -0 -0 -0 -0 -0 -1 -1 -1 -1 -1 -1 -1 -0 -0 -1 -1 -1 -0 0 -0 -1 -1 -1 -1 -1 -0 -1 -1 -0 -1 -1 -0 0 0 0 0 1 1 1 0 0 1 2 2 2 1 -0 0 1 2 2 1 1 1 1
-0 0 0 1 0 0 -0 0 0 0 0 0 -0 -0 -1 -1 -1 -1 -1 -2 -1 -1 -0 -0 -0 -1 -1 -0 -1 -1 -1 -1 -0 -1 -1 -1 -1 -1 -1 -1 -0 0 0 0 0 0 0 -0 0 0 1 1 2 2 2 0 0 1 1 1 0 1 2 2 2 2 2 2 2
0 0 0 0 0 -0 -0 0 0 1 0 -0 -0 -1 -1 -0 -1 -1 -1 -1 -1 -1 -1 -1 -1 -1 -1 -1 -1 -1 -1 -1 -0 -1 -1 -1 -1 -1 -1 -1 -0 0 1 1 0 -0 -0 -0 -0 0 1 1 1 2 2 1 0 -1 -1 -1 0 1 2 2 3 3 3 4 3
1 1 0 0 0 -0 -0 -0 0 -0 -0 -1 -1 -1 -1 -0 -0 -0 -1 -1 -2 -2 -1 -1 -1 -1 -1 -1 -1 -1 -1 -1 -1 -1 -1 -1 -1 -1 -1 -1 -1 0 1 1 1 0 -0 -1 -0 0 0 -0 -0 1 2 2 1 -0 -2 -3 -2 -1 1 3 3 3 4 4 3
1 1 1 1 0 -0 -1 -0 -0 -0 -1 -1 -1 -0 -0 -0 -0 -1 -1 -2 -2 -1 -0 -1 -0 -0 -1 -1 -2 -2 -2 -2 -1 -1 -1 -1 -1 -2 -2 -2 -2 -1 -0 0 1 0 -0 -1 -0 1 1 1 1 1 2 3 2 -0 -2 -3 -2 -1 -0 0 1 2 2 1 1
1 1 1 0 -0 -1 -1 -0 -0 -0 -0 -0 -0 -0 -0 -0 -1 -1 -2 -1 -1 -0 -0 -0 -0 -1 -1 -2 -2 -2 -1 -1 -1 -0 -0 -1 -2 -2 -3 -3 -2 -2 -1 -1 -0 -0 -1 -2 -1 0 1 2 2 2 2 3 2 0 -1 -1 0 1 -0 -1 -2 -2 -2 -2 -0
0 0 0 -0 -1 -1 -1 -1 -0 -0 -0 -0 -0 -0 -0 -1 -1 -1 -1 0 -0 -1 -1 -0 -1 -1 -2 -2 -2 -1 -0 0 0 -0 -1 -2 -2 -2 -2 -2 -2 -2 -1 -1 -1 -1 -1 -2 -2 -1 -0 1 1 1 1 2 1 -0 -1 1 1 0 -1 -2 -3 -4 -4 -2 -0
0 0 0 -0 -0 -1 -1 -0 -0 -0 -0 -0 -0 -1 -1 -1 -1 -0 0 0 -1 -1 -1 -1 -1 -1 -2 -2 -1 -0 1 1 0 -1 -2 -2 -2 -2 -2 -2 -2 -2 -1 -1 -1 -1 -2 -2 -2 -2 -2 -1 -1 -1 -0 1 -0 -1 -1 1 -0 -1 -2 -2 -3 -2 -1 -0 -1
0 0 0 -0 -0 -0 -0 -0 -0 -0 -0 -1 -1 -1 -1 -1 -0 -0 -0 -1 -1 -1 -1 -1 -1 -1 -2 -1 -0 0 1 0 -1 -1 -1 -1 -1 -2 -2 -2 -2 -1 -1 -1 -1 -1 -1 -2 -3 -3 -3 -3 -2 -1 -1 -0 -1 -2 -2 -1 -2 -2 -2 -1 -0 1 1 -0 -1
0 0 -0 -0 -0 -0 -0 -0 -0 -1 -1 -1 -1 -1 -1 -1 -0 -0 -0 -1 -1 -1 -1 -1 -1 -1 -1 -1 0 1 0 -0 -1 -1 -1 -1 -1 -1 -2 -1 -1 -1 -1 -1 -0 -1 -1 -2 -3 -3 -3 -3 -2 -1 -1 -1 -2 -2 -2 -2 -2 -2 -1 1 2 1 0 -1 -1
0 -0 -0 -0 0 0 -0 -0 -0 -1 -1 -1 -1 -1 -0 -0 -0 0 0 -0 -1 -1 -1 -1 -1 -1 -1 -0 0 0 -0 -1 -1 -1 -1 -1 -1 -1 -1 -1 -1 -0 0 0 0 -1 -2 -2 -3 -3 -3 -3 -2 -1 -1 -1 -1 -1 -1 -1 -1 -0 0 1 1 1 -0 -1 -1
-0 -0 0 0 0 0 -0 -0 -1 -1 -1 -1 -1 -0 -0 -0 0 0 -0 -0 -0 -1 -1 -1 -1 -1 -1 -0 -0 -0 -1 -1 -1 -1 -2 -2 -2 -2 -2 -2 -1 -0 0 1 0 -0 -1 -2 -2 -2 -2 -2 -2 -1 -1 -1 -1 -1 -0 0 0 0 1 1 1 1 1 1 -1
0 0 0 1 0 0 -0 -0 -1 -1 -1 -1 -1 -1 -1 -0 -0 -0 -1 -1 -1 -1 -1 -1 -1 -1 -1 -1 -1 -1 -2 -2 -2 -2 -2 -2 -2 -2 -2 -2 -2 -1 0 1 1 0 -0 -1 -1 -1 -1 -1 -1 -1 -1 -0 -1 -0 0 1 1 1 1 1 1 1 1 1 0
0 0 1 1 0 -0 -0 -0 -1 -1 -1 -1 -1 -1 -0 -0 -0 -0 -1 -1 -1 -1 -2 -1 -1 -1 -1 -1 -2 -2 -3 -3 -3 -2 -2 -2 -2 -2 -2 -2 -2 -1 -1 0 1 1 1 0 0 -0 -1 -1 -0 0 0 0 -0 0 0 0 1 1 1 1 1 1 1 1 1
0 0 1 0 0 -0 -0 -1 -1 -1 -1 -1 -1 -0 -0 -0 -0 -0 -1 -1 -1 -1 -1 -1 -1 -1 -1 -1 -2 -2 -3 -3 -3 -2 -2 -2 -1 -1 -2 -2 -2 -2 -1 -0 0 1 1 1 1 0 -0 -0 0 1 1 1 1 0 0 0 0 0 0 1 1 1 1 2 2
0 0 0 0 -0 -0 -1 -1 -1 -1 -1 -1 -0 -0 -0 -0 -0 -1 -1 -1 -1 -1 -1 -1 -0 -0 -0 -0 -1 -2 -2 -2 -2 -2 -2 -1 -1 -1 -1 -2 -2 -2 -1 -0 0 1 1 2 1 1 1 0 0 0 0 1 1 0 0 -0 -0 -0 -0 0 1 1 1 1 1
0 0 0 0 -0 -1 -1 -1 -1 -1 -1 -0 -0 -0 -0 -0 -1 -1 -1 -1 -0 -0 -0 -0 -1 -0 -0 -0 -1 -1 -1 -1 -1 -1 -1 -1 -1 -1 -1 -1 -1 -1 -1 -0 0 1 2 2 2 2 1 1 0 0 0 0 1 1 1 0 0 0 0 0 -0 -0 0 1 1
0 0 0 0 -0 -0 -0 -1 -0 -0 -0 -0 -1 -1 -1 -1 -1 -1 -1 -0 -0 -0 -1 -1 -1 -1 -1 -1 -1 -1 -0 0 -0 -0 -0 -1 -1 -0 -0 -0 -0 -1 -1 -1 -0 1 2 2 2 2 2 1 0 -0 -0 0 1 1 1 2 1 1 1 0 -0 -0 0 1 1
0 0 0 0 -0 -0 -0 0 0 -0 -0 -1 -1 -1 -1 -1 -1 -1 -0 -0 -1 -1 -1 -1 -1 -2 -1 -1 -1 -1 -0 0 0 0 -0 -0 -0 -0 -0 -0 -1 -2 -2 -2 -1 -0 1 1 2 2 2 1 -0 -0 -0 -0 0 1 1 2 2 2 1 1 0 -0 -0 0 1
0 0 0 0 0 0 0 0 0 -0 -1 -1 -1 -1 -1 -0 -0 -0 -0 -1 -1 -1 -1 -1 -1 -2 -2 -1 -1 -1 -0 -0 -0 -0 -0 -0 -0 -0 -0 -1 -2 -2 -2 -2 -0 0 1 0 1 1 1 1 0 0 0 0 0 -0 0 0 1 1 2 3 2 1 -0 -1 -0
1 0 0 -0 0 0 0 0 -0 -1 -1 -1 -1 -0 -0 0 0 0 -0 -1 -1 -1 -1 -1 -2 -2 -2 -2 -1 -1 -1 -1 -1 -0 -0 -1 -0 -0 -1 -2 -2 -2 -2 -1 1 1 1 1 1 1 1 1 1 1 1 0 0 0 -0 -0 -0 -0 0 1 1 1 0 -1 -0
1 0 -0 -0 -0 0 -0 -0 -1 -1 -1 -0 -0 -0 -0 0 1 1 0 -0 -1 -1 -1 -1 -2 -2 -2 -2 -1 -1 -1 -2 -1 -1 -1 -1 -1 -1 -2 -2 -3 -2 -1 1 2 2 2 2 2 2 2 1 0 -0 -1 -0 0 1 0 -0 -1 -1 -2 -2 -1 -1 0 0 0
0 -0 -1 -0 -0 -0 -0 -0 -0 -0 -0 -0 -1 -1 -1 0 1 1 1 -0 -0 -0 -0 -1 -2 -1 -1 -1 -2 -2 -3 -2 -2 -1 -1 -0 -1 -1 -2 -2 -3 -3 -1 1 2 2 2 2 2 2 1 1 0 -1 -1 -1 -0 0 -0 -1 -1 -2 -2 -3 -2 -1 -0 -0 -0
-0 -1 -0 -0 -0 -0 -0 0 0 -0 -1 -1 -1 -1 -0 0 1 1 1 1 1 0 -1 -2 -1 -0 -0 -1 -2 -3 -3 -3 -3 -2 -1 -0 -0 -1 -1 -2 -2 -2 -1 1 2 2 2 2 2 1 1 1 0 -1 -1 -1 -1 -1 -1 -1 -1 -1 -2 -2 -1 -1 -0 -0 -1
-0 -1 -0 -0 -0 -0 0 0 -1 -1 -1 -1 -0 -0 0 -0 0 0 1 1 -0 -2 -2 -2 -0 -0 -1 -2 -2 -2 -2 -3 -3 -2 -1 -0 -1 -1 -1 -1 -2 -2 -1 1 1 2 2 2 1 1 1 1 0 -0 -1 -1 -1 -1 -1 -1 -1 -1 -1 -1 -1 -1 -0 -0 -0
-0 -1 -1 -0 -0 -0 -0 -0 -1 -0 -0 0 0 0 -0 -0 -1 -1 -1 -2 -2 -3 -2 -0 0 -1 -2 -2 -1 -2 -2 -2 -2 -2 -2 -2 -1 -1 -1 -1 -1 -1 -1 0 1 1 2 1 1 1 1 1 0 -1 -1 -1 -1 -1 -2 -2 -1 -1 -1 -1 -1 -1 -1 -0 -1
-0 -1 -1 -0 -0 -0 -0 -0 -0 0 0 1 0 0 -0 -1 -2 -2 -2 -2 -2 -1 0 1 0 -1 -1 -1 -1 -1 -1 -1 -1 -2 -3 -3 -2 -1 -0 0 -1 -1 -1 -0 1 1 1 1 1 1 1 1 -0 -1 -1 -1 -1 -1 -1 -1 -1 -1 -1 -1 -1 -1 -1 -1 -2
-0 -0 -0 -0 -1 -1 -0 0 0 0 0 0 0 -0 -1 -2 -2 -2 -2 -1 -0 1 1 0 -0 -1 -1 -1 -1 -1 -1 -1 -2 -2 -2 -2 -2 -1 -0 -0 -2 -2 -2 -0 1 1 1 1 1 1 1 1 0 -1 -1 -1 -1 -0 -0 -1 -1 -1 -2 -2 -2 -1 -1 -2 -2
-0 -0 -0 -1 -1 -1 -0 0 1 1 0 0 -0 -1 -1 -1 -1 -1 -1 -1 -1 -1 -1 -1 -2 -2 -2 -2 -2 -1 -1 -1 -1 -1 -1 -1 -1 -1 -1 -1 -2 -2 -1 0 0 0 1 1 1 2 2 2 1 -0 -1 -1 -0 -0 -0 -0 -0 -1 -1 -1 -1 -1 -1 -1 -1
-0 -0 -0 -1 -1 -1 -0 0 0 0 0 0 -0 -1 -1 -1 -1 -1 -2 -1 -1 -1 -1 -2 -2 -2 -2 -2 -1 -1 -1 -0 -0 -0 -1 -1 -0 -1 -1 -2 -2 -1 -0 0 -0 -0 0 1 1 2 2 2 1 -0 -1 -1 -1 -1 -1 -0 -0 -0 -0 -1 -1 -1 -1 -1 -1
-0 -1 -1 -1 -1 -1 -0 -0 0 0 0 -0 -1 -1 -1 -1 -1 -2 -2 -1 -1 -1 -1 -1 -1 -1 -1 -1 -1 -1 -1 -0 -0 -0 -0 -0 -0 -1 -1 -1 -0 -0 -0 -1 -1 -1 -0 0 1 2 3 2 1 0 -1 -1 -2 -2 -1 -1 -1 -1 -1 -1 -1 -1 -1 -1 -1
-1 -1 -1 -1 -1 -1 -1 -0 0 0 0 -0 -1 -1 -1 -1 -1 -1 -1 -0 -0 -1 -1 -1 -1 -1 -1 -1 -1 -2 -1 -1 -1 -0 -0 -0 -1 -1 -1 -1 -0 -1 -1 -2 -1 -1 -1 -1 0 1 2 2 1 0 -0 -1 -1 -1 -1 -1 -2 -2 -1 -1 -1 -1 -1 -1 -1
-1 -1 -1 -1 -1 -1 -1 0 1 0 0 -1 -1 -2 -1 -1 -1 -0 -0 -0 -1 -1 -1 -1 -1 -2 -2 -2 -2 -2 -1 -1 -1 -0 -1 -1 -1 -2 -2 -1 -1 -2 -2 -2 -2 -1 -1 -1 -1 -0 -0 -0 -1 -1 -1 -1 -1 -1 -1 -2 -2 -2 -1 -1 -0 -0 -0 -1 -1
-1 -1 -1 -1 -1 -1 -0 0 0 0 -0 -1 -1 -1 -1 -1 -1 -0 -0 -0 -1 -1 -1 -2 -2 -2 -2 -2 -1 -1 -1 -1 -1 -1 -1 -2 -2 -2 -2 -2 -2 -2 -2 -2 -2 -2 -2 -2 -1 -1 -1 -1 -1 -1 -1 -1 -1 -1 -1 -1 -1 -1 -1 -0 -0 -0 -0 -0 -0
-1 -1 -1 -1 -1 -1 -0 -0 0 -0 -0 -0 -1 -1 -1 -1 -1 -1 -0 -0 -1 -1 -1 -2 -2 -2 -2 -1 -1 -1 -1 -1 -1 -1 -1 -2 -1 -1 -1 -2 -2 -2 -2 -2 -2 -2 -2 -2 -2 -1 -1 -1 -2 -2 -1 -1 -1 -1 -1 -1 -1 -1 -1 -1 -0 -0 0 0 0
-0 -1 -1 -1 -1 -0 -0 -0 -0 -0 0 0 -0 -1 -1 -1 -1 -1 -1 -0 -1 -1 -1 -2 -2 -2 -1 -1 -1 -1 -1 -1 -1 -1 -1 -1 -0 -0 -1 -1 -2 -2 -2 -2 -2 -2 -2 -2 -2 -2 -2 -2 -2 -2 -2 -1 -1 -2 -2 -3 -2 -1 -1 -0 -0 -0 -0 -0 -0
-0 -1 -1 -1 -1 -1 -1 -1 -1 -0 0 0 -0 -1 -1 -1 -1 -1 -1 -1 -1 -1 -1 -2 -2 -1 -1 -1 -1 -1 -1 -1 -1 -1 -1 -0 0 -0 -1 -1 -1 -2 -2 -2 -2 -2 -2 -2 -2 -2 -2 -3 -2 -2 -2 -2 -3 -4 -4 -3 -2 -2 -1 -1 -0 -0 -1 -1 -1
Height
1494 1493 1492 1491 1490 1489 1488 1486 1485 1484 1483 1482 1481 1479 1478 1477 1476 1474 1473 1472 1471 1470 1468 1467 1466 1464 1463 1461 1460 1458 1456 1454 1452 1451 1449 1446 1444 1442 1440 1438 1436 1434 1432 1430 1428 1426 1424 1423 1421 1420 1418 1416 1415 1413 1411 1409 1407 1405 1403 1402 1400 1398 1397 1395 1393 1391 1390 1388 1386
1494 1493 1492 1491 1490 1489 1488 1486 1485 1484 1483 1482 1481 1480 1478 1477 1476 1474 1473 1472 1471 1470 1468 1467 1466 1464 1463 1461 1460 1458 1456 1455 1453 1451 1449 1447 1444 1442 1440 1438 1436 1434 1432 1431 1428 1426 1425 1423 1421 1420 1418 1416 1415 1413 1411 1409 1407 1405 1403 1401 1399 1397 1396 1394 1391 1390 1388 1387 1385
1494 1493 1492 1491 1490 1489 1487 1486 1485 1484 1483 1482 1481 1480 1478 1477 1476 1474 1473 1472 1471 1470 1468 1467 1466 1464 1463 1461 1460 1458 1457 1455 1453 1451 1449 1447 1445 1443 1441 1439 1437 1435 1433 1431 1429 1427 1426 1424 1422 1420 1418 1416 1415 1413 1411 1409 1407 1405 1403 1401 1399 1397 1395 1393 1391 1389 1387 1386 1384
1494 1493 1492 1491 1490 1489 1488 1486 1485 1484 1483 1482 1481 1480 1478 1477 1476 1475 1473 1472 1471 1470 1468 1467 1466 1465 1463 1462 1460 1459 1457 1455 1454 1451 1450 1447 1446 1443 1441 1439 1437 1436 1434 1432 1430 1428 1426 1424 1423 1421 1419 1417 1416 1414 1412 1411 1408 1406 1404 1402 1400 1397 1395 1393 1391 1389 1387 1386 1384
1494 1493 1492 1491 1490 1489 1488 1487 1486 1484 1483 1482 1481 1480 1478 1477 1476 1475 1473 1472 1471 1470 1469 1467 1466 1465 1463 1462 1461 1459 1457 1456 1454 1452 1450 1448 1446 1444 1442 1440 1438 1436 1435 1433 1431 1429 1427 1425 1423 1422 1420 1418 1416 1415 1413 1411 1410 1407 1406 1403 1401 1399 1396 1394 1392 1390 1388 1386 1384
1494 1493 1493 1492 1491 1489 1488 1487 1486 1485 1483 1482 1481 1480 1478 1477 1476 1475 1474 1472 1471 1470 1469 1468 1466 1465 1463 1462 1461 1459 1457 1456 1454 1452 1450 1448 1447 1445 1443 1441 1439 1437 1436 1434 1432 1430 1428 1426 1424 1423 1421 1420 1418 1416 1414 1412 1410 1408 1406 1405 1402 1401 1398 1396 1393 1391 1389 1387 1385
1495 1494 1493 1492 1491 1490 1488 1487 1486 1485 1484 1482 1481 1480 1479 1478 1476 1475 1474 1473 1472 1470 1469 1468 1466 1465 1464 1462 1460 1459 1457 1456 1454 1452 1451 1449 1447 1446 1444 1442 1440 1438 1436 1435 1433 1431 1429 1427 1426 1424 1422 1421 1419 1417 1415 1412 1411 1409 1407 1405 1404 1402 1400 1397 1395 1393 1391 1388 1386
1495 1494 1493 1492 1491 1490 1489 1488 1486 1485 1484 1483 1482 1481 1479 1478 1477 1476 1475 1473 1472 1471 1470 1468 1467 1466 1464 1462 1461 1459 1458 1456 1455 1453 1451 1450 1448 1446 1444 1442 1441 1439 1437 1436 1434 1432 1430 1428 1426 1425 1423 1421 1420 1418 1416 1414 1411 1409 1407 1406 1404 1403 1401 1399 1397 1395 1392 1390 1387
1495 1495 1494 1492 1491 1490 1489 1488 1487 1486 1485 1483 1482 1481 1480 1479 1477 1476 1475 1474 1472 1471 1470 1469 1467 1466 1464 1462 1461 1460 1458 1456 1455 1453 1451 1450 1448 1446 1445 1443 1441 1440 1438 1436 1435 1433 1431 1429 1428 1426 1425 1423 1421 1420 1418 1416 1413 1411 1409 1407 1406 1404 1402 1400 1398 1396 1394 1392 1390
1496 1495 1494 1493 1492 1491 1490 1489 1487 1486 1485 1484 1483 1481 1481 1479 1478 1476 1476 1474 1473 1472 1471 1469 1468 1466 1465 1463 1461 1460 1459 1457 1456 1454 1452 1451 1449 1447 1445 1444 1442 1441 1439 1437 1436 1434 1432 1431 1429 1428 1426 1425 1423 1421 1420 1418 1416 1414 1412 1410 1408 1406 1404 1402 1400 1397 1396 1393 1391
1496 1495 1494 1493 1492 1491 1490 1489 1488 1487 1486 1484 1483 1482 1481 1480 1478 1477 1476 1475 1474 1472 1471 1470 1468 1466 1465 1464 1462 1461 1460 1458 1456 1455 1453 1451 1450 1448 1446 1445 1443 1441 1440 1439 1437 1435 1434 1432 1431 1429 1428 1426 1425 1423 1421 1420 1418 1416 1414 1413 1411 1409 1406 1404 1402 1400 1398 1396 1394
1496 1496 1495 1494 1493 1492 1491 1489 1488 1487 1486 1485 1484 1483 1481 1480 1479 1478 1477 1476 1474 1473 1471 1470 1468 1467 1466 1464 1463 1462 1460 1459 1457 1455 1454 1452 1451 1449 1447 1446 1444 1443 1441 1440 1438 1437 1435 1434 1432 1431 1429 1428 1426 1425 1423 1422 1420 1418 1416 1415 1413 1411 1409 1407 1405 1402 1401 1398 1396
1497 1496 1495 1494 1493 1492 1491 1490 1489 1488 1486 1486 1484 1483 1482 1481 1480 1479 1477 1476 1475 1473 1472 1471 1469 1468 1466 1465 1464 1463 1461 1460 1458 1456 1455 1453 1452 1450 1449 1447 1446 1444 1443 1441 1440 1438 1437 1435 1434 1432 1431 1429 1428 1426 1425 1423 1421 1420 1418 1416 1414 1412 1411 1409 1407 1405 1403 1401 1399
1497 1496 1496 1495 1494 1492 1491 1490 1489 1488 1487 1486 1485 1484 1483 1482 1481 1479 1478 1476 1475 1474 1472 1471 1470 1468 1467 1466 1465 1464 1462 1461 1459 1457 1456 1455 1453 1451 1450 1449 1447 1446 1445 1443 1442 1440 1439 1437 1436 1434 1433 1431 1430 1428 1426 1425 1423 1421 1420 1418 1416 1414 1413 1411 1409 1407 1406 1403 1401
1498 1497 1496 1495 1494 1493 1492 1491 1490 1489 1488 1487 1486 1485 1484 1482 1481 1480 1478 1477 1476 1474 1473 1472 1471 1469 1468 1467 1466 1464 1463 1461 1460 1459 1457 1456 1454 1453 1451 1450 1449 1448 1446 1445 1444 1442 1441 1439 1437 1436 1435 1433 1431 1430 1428 1427 1425 1423 1421 1420 1418 1416 1415 1413 1411 1410 1407 1406 1404
1498 1497 1496 1496 1495 1493 1492 1491 1491 1490 1489 1487 1486 1486 1484 1483 1481 1480 1479 1477 1476 1475 1474 1472 1471 1470 1469 1468 1466 1465 1464 1462 1461 1460 1458 1457 1456 1454 1453 1451 1451 1449 1448 1447 1446 1444 1442 1441 1439 1438 1436 1435 1433 1432 1430 1428 1427 1425 1424 1422 1420 1419 1417 1415 1413 1411 1410 1408 1406
1499 1498 1497 1496 1495 1494 1493 1492 1491 1490 1489 1488 1487 1486 1485 1484 1482 1481 1479 1478 1477 1476 1474 1473 1472 1471 1470 1468 1467 1466 1465 1463 1462 1461 1459 1458 1457 1456 1454 1453 1452 1451 1450 1449 1447 1446 1444 1443 1441 1440 1438 1436 1435 1433 1432 1430 1428 1427 1425 1424 1422 1420 1419 1417 1415 1413 1411 1410 1408
1499 1498 1497 1496 1496 1495 1494 1493 1492 1491 1490 1489 1488 1487 1486 1484 1483 1481 1480 1479 1477 1476 1475 1474 1473 1472 1471 1469 1468 1467 1466 1464 1463 1462 1461 1459 1458 1457 1456 1455 1453 1452 1451 1450 1449 1447 1446 1445 1443 1441 1440 1438 1436 1435 1433 1432 1430 1428 1427 1425 1424 1422 1420 1418 1417 1415 1413 1411 1410
1500 1499 1498 1497 1496 1495 1494 1493 1492 1491 1491 1490 1489 1487 1486 1485 1483 1482 1481 1479 1478 1477 1476 1475 1474 1473 1471 1470 1469 1468 1466 1466 1464 1463 1462 1461 1460 1458 1457 1456 1455 1454 1452 1451 1450 1449 1447 1446 1444 1443 1441 1439 1438 1436 1435 1433 1431 1430 1428 1426 1425 1423 1421 1420 1418 1416 1415 1413 1411
1500 1499 1498 1498 1497 1496 1495 1494 1493 1492 1491 1491 1489 1488 1487 1485 1484 1483 1481 1480 1479 1478 1477 1476 1475 1474 1473 1472 1471 1469 1468 1467 1466 1465 1463 1462 1461 1460 1459 1457 1456 1455 1454 1452 1451 1450 1449 1447 1446 1444 1442 1441 1439 1437 1436 1434 1433 1431 1429 1428 1426 1425 1423 1421 1420 1418 1416 1415 1413
1501 1500 1499 1498 1497 1497 1496 1495 1494 1493 1492 1491 1490 1489 1487 1486 1485 1483 1482 1481 1480 1479 1478 1477 1476 1475 1474 1473 1472 1471 1470 1469 1468 1466 1465 1464 1463 1461 1460 1459 1457 1456 1455 1453 1452 1451 1450 1448 1447 1445 1444 1442 1440 1439 1437 1436 1434 1432 1431 1429 1427 1426 1424 1422 1421 1419 1417 1416 1414
1501 1501 1500 1499 1498 1497 1497 1496 1495 1494 1493 1492 1491 1489 1488 1487 1486 1485 1483 1482 1481 1480 1479 1478 1477 1476 1475 1474 1473 1472 1471 1471 1469 1468 1467 1466 1464 1463 1461 1460 1459 1457 1456 1454 1453 1452 1451 1450 1448 1446 1445 1443 1441 1440 1438 1437 1435 1434 1432 1431 1429 1427 1426 1424 1422 1420 1419 1417 1416
1502 1501 1501 1500 1499 1498 1497 1497 1496 1495 1494 1493 1491 1490 1489 1488 1486 1486 1485 1483 1482 1481 1480 1479 1478 1477 1476 1476 1475 1474 1473 1472 1471 1469 1468 1467 1466 1464 1463 1461 1460 1458 1456 1455 1454 1453 1452 1451 1449 1448 1446 1444 1443 1441 1439 1438 1436 1435 1433 1432 1430 1428 1427 1425 1423 1421 1420 1418 1416
1502 1502 1501 1501 1500 1499 1498 1497 1496 1496 1495 1493 1492 1491 1490 1489 1487 1486 1486 1484 1483 1482 1481 1481 1480 1479 1478 1477 1476 1475 1474 1473 1472 1471 1469 1468 1467 1465 1464 1462 1461 1459 1457 1456 1455 1454 1453 1452 1451 1449 1447 1446 1444 1442 1441 1439 1437 1436 1434 1433 1431 1430 1428 1426 1425 1423 1421 1419 1418
1503 1503 1502 1501 1501 1500 1499 1498 1497 1496 1495 1494 1493 1492 1491 1490 1489 1487 1486 1486 1485 1484 1483 1482 1481 1480 1479 1478 1477 1476 1475 1474 1473 1472 1471 1469 1468 1466 1465 1463 1461 1460 1459 1458 1457 1456 1455 1453 1452 1450 1449 1447 1445 1444 1442 1440 1439 1437 1435 1434 1432 1430 1429 1427 1426 1424 1422 1421 1419
1504 1503 1503 1502 1501 1501 1500 1499 1498 1497 1496 1495 1494 1493 1491 1491 1490 1489 1488 1487 1486 1485 1484 1483 1482 1481 1480 1479 1478 1477 1476 1475 1474 1473 1471 1470 1469 1467 1466 1464 1463 1461 1461 1460 1459 1458 1456 1455 1453 1452 1450 1448 1446 1445 1443 1441 1440 1438 1436 1435 1433 1431 1429 1428 1426 1425 1423 1422 1420
1505 1504 1503 1503 1502 1501 1501 1500 1499 1498 1497 1496 1495 1494 1492 1492 1491 1490 1489 1488 1487 1486 1486 1485 1484 1482 1481 1480 1479 1478 1477 1476 1475 1474 1473 1471 1470 1469 1467 1466 1464 1463 1462 1461 1460 1459 1458 1456 1455 1453 1451 1450 1448 1446 1444 1442 1441 1439 1437 1436 1434 1432 1431 1429 1427 1426 1425 1423 1421
1506 1505 1504 1504 1503 1502 1501 1501 1500 1499 1498 1496 1496 1495 1494 1493 1492 1491 1490 1490 1489 1488 1487 1486 1485 1484 1483 1482 1481 1479 1478 1477 1476 1475 1474 1473 1471 1470 1469 1467 1466 1465 1464 1463 1462 1461 1459 1458 1456 1454 1453 1451 1449 1447 1446 1444 1442 1440 1438 1437 1435 1433 1432 1430 1429 1427 1426 1424 1422
1506 1506 1505 1504 1504 1503 1502 1501 1501 1500 1499 1497 1496 1496 1495 1494 1493 1492 1491 1491 1490 1489 1488 1487 1486 1485 1484 1483 1482 1481 1480 1478 1477 1476 1475 1474 1473 1471 1470 1469 1467 1466 1465 1464 1463 1462 1460 1459 1457 1456 1454 1452 1451 1449 1447 1445 1443 1441 1440 1438 1436 1435 1433 1431 1430 1428 1427 1425 1424
1507 1506 1506 1505 1505 1504 1503 1502 1501 1501 1500 1499 1498 1497 1496 1495 1494 1493 1492 1491 1491 1490 1489 1488 1487 1486 1486 1484 1483 1482 1481 1480 1479 1477 1476 1475 1474 1473 1471 1470 1469 1468 1466 1465 1464 1463 1461 1460 1459 1457 1455 1454 1452 1450 1448 1446 1445 1443 1441 1439 1438 1436 1434 1433 1431 1430 1428 1426 1425
1508 1507 1506 1506 1506 1505 1504 1503 1502 1501 1501 1500 1499 1498 1497 1496 1495 1494 1493 1493 1492 1491 1491 1490 1489 1488 1487 1486 1485 1484 1482 1481 1480 1479 1477 1476 1475 1474 1473 1472 1471 1469 1468 1466 1466 1464 1463 1461 1460 1458 1457 1455 1453 1451 1449 1448 1446 1444 1442 1441 1439 1437 1436 1434 1432 1431 1429 1427 1425
1508 1508 1507 1507 1506 1506 1505 1504 1503 1502 1501 1501 1500 1499 1498 1497 1496 1495 1495 1494 1493 1492 1492 1491 1490 1489 1488 1487 1486 1485 1484 1482 1481 1480 1479 1478 1476 1476 1475 1473 1472 1470 1469 1468 1467 1466 1464 1463 1461 1460 1458 1456 1455 1453 1451 1449 1447 1446 1444 1442 1440 1438 1437 1435 1433 1431 1430 1428 1426
1509 1509 1508 1507 1507 1506 1506 1505 1504 1503 1502 1501 1501 1500 1499 1498 1497 1496 1496 1495 1494 1493 1493 1492 1491 1490 1489 1488 1487 1486 1485 1484 1483 1481 1481 1479 1478 1477 1476 1474 1473 1471 1470 1469 1468 1467 1466 1464 1463 1461 1460 1458 1456 1454 1452 1451 1449 1447 1445 1443 1441 1440 1438 1436 1435 1433 1431 1429 1427
1510 1509 1509 1508 1508 1507 1506 1506 1505 1504 1503 1502 1501 1501 1500 1499 1498 1497 1496 1496 1495 1495 1494 1493 1492 1491 1490 1489 1488 1487 1486 1485 1484 1483 1482 1481 1480 1478 1477 1476 1474 1473 1472 1471 1469 1468 1467 1466 1464 1463 1461 1460 1458 1456 1454 1452 1450 1448 1446 1445 1443 1441 1439 1437 1436 1434 1432 1431 1429
1511 1510 1510 1509 1508 1508 1507 1506 1506 1505 1504 1503 1502 1501 1501 1500 1499 1498 1498 1497 1496 1496 1495 1494 1493 1493 1492 1491 1490 1489 1488 1486 1486 1485 1483 1482 1481 1480 1478 1477 1476 1474 1473 1472 1471 1469 1468 1466 1465 1464 1462 1461 1459 1457 1455 1453 1451 1449 1447 1446 1444 1442 1440 1439 1437 1435 1433 1432 1430
1511 1511 1510 1510 1509 1509 1508 1507 1506 1506 1505 1504 1503 1502 1502 1501 1500 1500 1499 1498 1498 1497 1496 1496 1495 1494 1493 1492 1491 1490 1489 1488 1487 1486 1485 1484 1482 1481 1480 1478 1477 1476 1474 1473 1472 1471 1469 1468 1466 1465 1464 1462 1460 1458 1456 1454 1452 1450 1449 1447 1445 1443 1441 1440 1438 1436 1435 1433 1431
1512 1511 1511 1511 1510 1509 1509 1508 1507 1506 1506 1505 1504 1503 1503 1502 1501 1501 1500 1499 1499 1498 1497 1496 1496 1495 1494 1493 1492 1491 1490 1489 1488 1487 1486 1485 1483 1482 1481 1480 1478 1477 1476 1474 1473 1472 1470 1469 1467 1466 1464 1462 1461 1459 1457 1455 1453 1451 1450 1448 1446 1444 1443 1441 1440 1438 1436 1434 1432
1512 1512 1511 1511 1511 1510 1509 1509 1508 1507 1507 1506 1505 1504 1504 1503 1502 1502 1501 1501 1500 1499 1498 1497 1496 1496 1495 1494 1493 1492 1491 1491 1490 1488 1487 1486 1485 1483 1482 1481 1479 1478 1477 1476 1474 1473 1471 1470 1468 1467 1465 1463 1461 1460 1458 1456 1454 1452 1451 1449 1447 1446 1444 1442 1441 1439 1438 1436 1434
1513 1513 1512 1512 1511 1511 1510 1510 1509 1508 1507 1507 1506 1505 1505 1504 1503 1503 1502 1501 1501 1500 1499 1498 1498 1497 1496 1495 1494 1494 1493 1492 1491 1490 1488 1487 1486 1485 1483 1482 1481 1479 1478 1477 1476 1474 1472 1471 1469 1468 1466 1464 1462 1461 1459 1457 1455 1454 1452 1450 1448 1446 1445 1443 1442 1441 1439 1437 1436
1513 1513 1513 1512 1512 1511 1511 1510 1510 1509 1508 1508 1507 1506 1506 1505 1504 1504 1503 1503 1502 1501 1501 1500 1499 1498 1497 1496 1496 1495 1494 1493 1492 1491 1490 1488 1487 1486 1485 1483 1482 1481 1479 1478 1477 1475 1474 1472 1470 1469 1467 1465 1463 1462 1460 1458 1456 1455 1453 1451 1449 1447 1446 1445 1443 1441 1440 1438 1436
1514 1514 1513 1513 1512 1512 1511 1511 1510 1510 1509 1509 1508 1507 1506 1506 1505 1505 1504 1504 1503 1502 1501 1501 1500 1499 1498 1498 1497 1496 1495 1494 1493 1492 1491 1490 1488 1487 1486 1484 1483 1482 1481 1479 1478 1476 1475 1473 1471 1470 1468 1466 1465 1463 1461 1459 1457 1455 1453 1451 1450 1448 1447 1446 1444 1442 1441 1439 1437